Location: Auttagershofen
(48.1940°N, 10.0237°E)
Time: 02:20:12
(UTC+00:00)

Cosmos 2366 rocket - Pass Details

Date: 18 January 2026
Orbit: 955 x 995 km, 82.9° (Epoch: 6 February)

Event Time Altitude Azimuth Distance (km) Brightness Sun altitude
Rises 05:52:40 0° 189° (S) 3,637 7.1 -11.6°
Reaches altitude 10° 05:55:08 10° 190° (S) 2,700 6.4 -11.2°
Maximum altitude 06:01:20 85° 277° (W) 985 4.0 -10.2°
Drops below altitude 10° 06:07:39 10° 8° (N) 2,747 6.2 -9.2°
Sets 06:10:12 0° 9° (N) 3,705 6.9 -8.8°
